Location: Casteau
(50.5142°N, 4.0161°E)
Time: 05:49:47
(UTC+00:00)

Vanguard 1 Rocket - Pass Details

Date: 05 August 2021
Orbit: 650 x 4226 km, 34.3° (Epoch: 21 September)

Event Time Altitude Azimuth Distance (km) Brightness Sun altitude
Rises 14:17:12 0° 270° (W) 6,235 12.2 45.3°
Reaches altitude 10° 14:24:07 10° 252° (WSW) 4,382 11.9 44.4°
Maximum altitude 14:29:32 15° 223° (SW) 3,303 11.4 43.6°
Drops below altitude 10° 14:33:39 10° 191° (S) 3,155 10.8 43.1°
Sets 14:37:17 0° 167° (SSE) 3,674 10.7 42.6°
